Time,TemperatureF,DewpointF,PressureIn,WindDirection,WindDirectionDegrees,WindSpeedMPH,WindSpeedGustMPH,Humidity,HourlyPrecipIn,Conditions,Clouds,dailyrainin,SolarRadiationWatts/m^2,SoftwareType,DateUTC
2013-01-01 00:00:00,31.8,30.0,30.04,West,265,3.6,9.2,93,0.00,-SN,,0.00,0.0,WeatherDisplay:10.37,2013-01-01 05:00:00,
2013-01-01 00:01:00,31.8,30.0,30.03,West,265,4.5,9.2,93,0.00,-SN,,0.00,0.0,WeatherDisplay:10.37,2013-01-01 05:01:00,
2013-01-01 00:02:00,31.8,30.0,30.03,WSW,252,4.9,6.9,93,0.00,-SN,,0.00,0.0,WeatherDisplay:10.37,2013-01-01 05:02:00,
2013-01-01 00:07:00,31.8,29.7,30.03,WSW,239,4.4,5.8,92,0.00,-SN,,0.00,0.0,WeatherDisplay:10.37,2013-01-01 05:07:00,
2013-01-01 00:12:00,31.8,29.7,30.03,West,261,5.3,9.2,92,0.00,-SN,,0.00,0.0,WeatherDisplay:10.37,2013-01-01 05:12:00,
2013-01-01 00:17:00,31.8,29.7,30.03,WSW,245,5.9,5.9,92,0.00,-SN,,0.00,0.0,WeatherDisplay:10.37,2013-01-01 05:17:00,
2013-01-01 00:22:00,31.8,29.7,30.03,WSW,254,5.6,8.1,92,0.00,-SN,,0.00,0.0,WeatherDisplay:10.37,2013-01-01 05:22:00,
2013-01-01 00:27:00,31.7,29.6,30.03,West,281,6.7,9.2,92,0.00,-SN,,0.00,0.0,WeatherDisplay:10.37,2013-01-01 05:27:00,
2013-01-01 00:32:00,31.8,29.7,30.03,WNW,287,4.9,7.0,92,0.00,-SN,,0.00,0.0,WeatherDisplay:10.37,2013-01-01 05:32:00,
2013-01-01 00:37:00,31.7,29.6,30.04,West,264,5.9,6.9,92,0.00,-SN,,0.00,0.0,WeatherDisplay:10.37,2013-01-01 05:37:00,
2013-01-01 00:42:00,31.8,29.7,30.04,West,259,5.9,9.2,92,0.00,-SN,,0.00,0.0,WeatherDisplay:10.37,2013-01-01 05:42:00,
2013-01-01 00:47:00,31.8,29.7,30.04,WNW,284,7.1,10.4,92,0.00,-SN,,0.00,0.0,WeatherDisplay:10.37,2013-01-01 05:47:00,
2013-01-01 00:52:00,31.8,29.7,30.04,West,275,4.0,8.1,92,0.00,-SN,,0.00,0.0,WeatherDisplay:10.37,2013-01-01 05:52:00,
2013-01-01 00:57:00,31.8,29.7,30.03,WSW,243,6.2,9.0,92,0.00,-SN,,0.00,0.0,WeatherDisplay:10.37,2013-01-01 05:57:00,
2013-01-01 01:02:00,31.8,29.7,30.03,West,274,6.3,10.4,92,0.00,-SN,,0.00,0.0,WeatherDisplay:10.37,2013-01-01 06:02:00,
2013-01-01 01:07:00,31.8,29.7,30.04,WSW,254,5.4,11.5,92,0.00,-SN,,0.00,0.0,WeatherDisplay:10.37,2013-01-01 06:07:00,
2013-01-01 01:12:00,31.8,29.7,30.04,West,261,5.6,7.0,92,0.00,-SN,,0.00,0.0,WeatherDisplay:10.37,2013-01-01 06:12:00,
2013-01-01 01:17:00,31.8,29.7,30.04,WSW,239,4.9,8.1,92,0.00,-SN,,0.00,0.0,WeatherDisplay:10.37,2013-01-01 06:17:00,
2013-01-01 01:22:00,31.8,29.7,30.04,WSW,249,4.6,10.4,92,0.00,-SN,,0.00,0.0,WeatherDisplay:10.37,2013-01-01 06:22:00,
2013-01-01 01:27:00,31.8,29.7,30.04,WSW,240,5.8,7.0,92,0.00,-SN,,0.00,0.0,WeatherDisplay:10.37,2013-01-01 06:27:00,
2013-01-01 01:32:00,31.8,29.7,30.03,West,259,4.1,5.8,92,0.00,-SN,,0.00,0.0,WeatherDisplay:10.37,2013-01-01 06:32:00,
2013-01-01 01:37:00,31.8,29.7,30.03,WSW,248,3.9,6.9,92,0.00,-SN,,0.00,0.0,WeatherDisplay:10.37,2013-01-01 06:37:00,
2013-01-01 01:42:00,31.7,29.6,30.03,WSW,257,3.8,5.0,92,0.00,-SN,,0.00,0.0,WeatherDisplay:10.37,2013-01-01 06:42:00,
2013-01-01 01:47:00,31.7,29.6,30.03,WSW,258,3.7,6.0,92,0.00,-SN,,0.00,0.0,WeatherDisplay:10.37,2013-01-01 06:47:00,
2013-01-01 01:52:00,31.7,29.6,30.03,West,270,4.3,6.0,92,0.00,-SN,,0.00,0.0,WeatherDisplay:10.37,2013-01-01 06:52:00,
2013-01-01 01:57:00,31.7,29.6,30.03,WNW,286,3.5,8.1,92,0.00,-SN,,0.00,0.0,WeatherDisplay:10.37,2013-01-01 06:57:00,
2013-01-01 02:02:00,31.7,29.6,30.03,NW,305,3.4,5.8,92,0.00,-SN,,0.00,0.0,WeatherDisplay:10.37,2013-01-01 07:02:00,
2013-01-01 02:07:00,31.7,29.6,30.02,WNW,286,2.2,3.5,92,0.00,-SN,,0.00,0.0,WeatherDisplay:10.37,2013-01-01 07:07:00,
2013-01-01 02:12:00,31.7,29.6,30.02,West,277,3.8,4.6,92,0.00,-SN,,0.00,0.0,WeatherDisplay:10.37,2013-01-01 07:12:00,
2013-01-01 02:17:00,31.7,29.6,30.02,WNW,284,2.1,4.0,92,0.00,-SN,,0.00,0.0,WeatherDisplay:10.37,2013-01-01 07:17:00,
2013-01-01 02:22:00,31.6,29.8,30.03,West,279,4.1,4.6,93,0.00,-SN,,0.00,0.0,WeatherDisplay:10.37,2013-01-01 07:22:00,
2013-01-01 02:27:00,31.6,29.5,30.03,WNW,289,3.2,8.1,92,0.00,-SN,,0.00,0.0,WeatherDisplay:10.37,2013-01-01 07:27:00,
2013-01-01 02:32:00,31.6,29.5,30.03,West,269,4.2,9.2,92,0.00,-SN,,0.00,0.0,WeatherDisplay:10.37,2013-01-01 07:32:00,
2013-01-01 02:37:00,31.6,29.5,30.03,West,275,2.1,5.0,92,0.00,-SN,,0.00,0.0,WeatherDisplay:10.37,2013-01-01 07:37:00,
2013-01-01 02:42:00,31.6,29.5,30.03,WNW,282,5.0,5.8,92,0.00,-SN,,0.00,0.0,WeatherDisplay:10.37,2013-01-01 07:42:00,
2013-01-01 02:47:00,31.6,29.8,30.03,WNW,282,4.8,6.0,93,0.00,-SN,,0.00,0.0,WeatherDisplay:10.37,2013-01-01 07:47:00,
2013-01-01 02:52:00,31.6,29.8,30.02,NNW,332,4.2,6.9,93,0.00,-SN,,0.00,0.0,WeatherDisplay:10.37,2013-01-01 07:52:00,
2013-01-01 02:57:00,31.6,29.8,30.03,NW,309,4.2,5.8,93,0.00,-SN,,0.00,0.0,WeatherDisplay:10.37,2013-01-01 07:57:00,
2013-01-01 03:02:00,31.5,29.4,30.03,NW,323,2.4,6.9,92,0.00,-SN,,0.00,0.0,WeatherDisplay:10.37,2013-01-01 08:02:00,
2013-01-01 03:07:00,31.5,29.4,30.03,NW,323,2.6,3.5,92,0.00,-SN,,0.00,0.0,WeatherDisplay:10.37,2013-01-01 08:07:00,
2013-01-01 03:12:00,31.4,29.1,30.03,NNW,327,2.8,3.5,91,0.00,-SN,,0.00,0.0,WeatherDisplay:10.37,2013-01-01 08:12:00,
2013-01-01 03:17:00,31.4,29.1,30.03,NW,310,4.1,5.8,91,0.00,-SN,,0.00,0.0,WeatherDisplay:10.37,2013-01-01 08:17:00,
2013-01-01 03:22:00,31.3,28.7,30.03,NW,317,3.6,5.8,90,0.00,-SN,,0.00,0.0,WeatherDisplay:10.37,2013-01-01 08:22:00,
2013-01-01 03:27:00,31.2,28.3,30.03,NW,309,3.1,5.8,89,0.00,-SN,,0.00,0.0,WeatherDisplay:10.37,2013-01-01 08:27:00,
2013-01-01 03:32:00,31.2,28.3,30.03,NW,318,3.9,5.8,89,0.00,-SN,,0.00,0.0,WeatherDisplay:10.37,2013-01-01 08:32:00,
2013-01-01 03:37:00,31.1,28.2,30.03,NW,322,3.9,8.1,89,0.00,-SN,,0.00,0.0,WeatherDisplay:10.37,2013-01-01 08:37:00,
2013-01-01 03:42:00,31.1,28.0,30.03,NNW,336,4.5,7.0,88,0.00,-SN,,0.00,0.0,WeatherDisplay:10.37,2013-01-01 08:42:00,
2013-01-01 03:47:00,31.0,27.9,30.04,WNW,282,4.4,5.8,88,0.00,-SN,,0.00,0.0,WeatherDisplay:10.37,2013-01-01 08:47:00,
2013-01-01 03:52:00,30.9,27.5,30.03,NW,304,4.4,6.9,87,0.00,-SN,,0.00,0.0,WeatherDisplay:10.37,2013-01-01 08:52:00,
2013-01-01 03:57:00,30.9,27.8,30.03,NW,306,3.9,10.4,88,0.00,-SN,,0.00,0.0,WeatherDisplay:10.37,2013-01-01 08:57:00,
2013-01-01 04:02:00,30.8,27.7,30.03,WNW,295,3.8,6.0,88,0.00,-SN,,0.00,0.0,WeatherDisplay:10.37,2013-01-01 09:02:00,
2013-01-01 04:07:00,30.8,27.7,30.04,WNW,298,2.4,3.5,88,0.00,-SN,,0.00,0.0,WeatherDisplay:10.37,2013-01-01 09:07:00,
2013-01-01 04:12:00,30.8,27.9,30.04,NW,308,2.5,3.5,89,0.00,-SN,,0.00,0.0,WeatherDisplay:10.37,2013-01-01 09:12:00,
2013-01-01 04:17:00,30.7,27.8,30.04,WNW,287,3.0,4.6,89,0.00,-SN,,0.00,0.0,WeatherDisplay:10.37,2013-01-01 09:17:00,
2013-01-01 04:22:00,30.7,27.8,30.04,WNW,296,2.8,3.5,89,0.00,-SN,,0.00,0.0,WeatherDisplay:10.37,2013-01-01 09:22:00,
2013-01-01 04:27:00,30.6,27.7,30.04,NW,308,3.2,3.5,89,0.00,-SN,,0.00,0.0,WeatherDisplay:10.37,2013-01-01 09:27:00,
2013-01-01 04:32:00,30.6,27.5,30.04,NW,306,3.1,5.0,88,0.00,-SN,,0.00,0.0,WeatherDisplay:10.37,2013-01-01 09:32:00,
2013-01-01 04:37:00,30.5,27.6,30.04,NW,304,2.3,3.5,89,0.00,-SN,,0.00,0.0,WeatherDisplay:10.37,2013-01-01 09:37:00,
2013-01-01 04:42:00,30.5,27.6,30.04,WNW,295,2.2,3.5,89,0.00,-SN,,0.00,0.0,WeatherDisplay:10.37,2013-01-01 09:42:00,
2013-01-01 04:47:00,30.4,27.5,30.04,WNW,285,3.3,4.6,89,0.00,-SN,,0.00,0.0,WeatherDisplay:10.37,2013-01-01 09:47:00,
2013-01-01 04:52:00,30.4,27.3,30.03,WNW,282,2.3,3.5,88,0.00,-SN,,0.00,0.0,WeatherDisplay:10.37,2013-01-01 09:52:00,
2013-01-01 04:57:00,30.3,27.2,30.04,WNW,294,5.2,6.9,88,0.00,-SN,,0.00,0.0,WeatherDisplay:10.37,2013-01-01 09:57:00,
2013-01-01 05:02:00,30.2,27.1,30.04,WSW,256,5.6,6.9,88,0.00,OVC,,0.00,0.0,WeatherDisplay:10.37,2013-01-01 10:02:00,
2013-01-01 05:07:00,30.1,26.7,30.04,WNW,295,3.9,4.6,87,0.00,OVC,,0.00,0.0,WeatherDisplay:10.37,2013-01-01 10:07:00,
2013-01-01 05:12:00,30.1,26.7,30.04,WNW,288,2.1,4.6,87,0.00,OVC,,0.00,0.0,WeatherDisplay:10.37,2013-01-01 10:12:00,
2013-01-01 05:17:00,30.0,26.6,30.03,WNW,294,2.3,3.5,87,0.00,OVC,,0.00,0.0,WeatherDisplay:10.37,2013-01-01 10:17:00,
2013-01-01 05:22:00,30.0,26.3,30.03,NW,318,3.6,5.8,86,0.00,OVC,,0.00,0.0,WeatherDisplay:10.37,2013-01-01 10:22:00,
2013-01-01 05:27:00,29.9,26.2,30.03,WNW,300,3.8,6.0,86,0.00,OVC,,0.00,0.0,WeatherDisplay:10.37,2013-01-01 10:27:00,
2013-01-01 05:32:00,29.9,26.5,30.03,WNW,296,5.5,8.1,87,0.00,OVC,,0.00,0.0,WeatherDisplay:10.37,2013-01-01 10:32:00,
2013-01-01 05:37:00,29.8,26.4,30.04,WNW,299,3.5,5.0,87,0.00,OVC,,0.00,0.0,WeatherDisplay:10.37,2013-01-01 10:37:00,
2013-01-01 05:42:00,29.8,26.4,30.04,WNW,296,2.5,4.6,87,0.00,OVC,,0.00,0.0,WeatherDisplay:10.37,2013-01-01 10:42:00,
2013-01-01 05:47:00,29.8,26.4,30.04,NW,304,3.1,4.6,87,0.00,OVC,,0.00,0.0,WeatherDisplay:10.37,2013-01-01 10:47:00,
2013-01-01 05:52:00,29.7,26.3,30.04,WNW,297,3.1,5.8,87,0.00,OVC,,0.00,0.0,WeatherDisplay:10.37,2013-01-01 10:52:00,
2013-01-01 05:57:00,29.7,26.3,30.04,NW,310,6.8,6.9,87,0.00,OVC,,0.00,0.0,WeatherDisplay:10.37,2013-01-01 10:57:00,
2013-01-01 06:02:00,29.6,26.2,30.04,NW,310,3.8,5.8,87,0.00,-SN,,0.00,0.0,WeatherDisplay:10.37,2013-01-01 11:02:00,
2013-01-01 06:07:00,29.6,26.2,30.04,WNW,290,5.5,6.9,87,0.00,-SN,,0.00,0.0,WeatherDisplay:10.37,2013-01-01 11:07:00,
2013-01-01 06:12:00,29.6,26.2,30.05,WNW,302,4.9,6.9,87,0.00,-SN,,0.00,0.0,WeatherDisplay:10.37,2013-01-01 11:12:00,
2013-01-01 06:17:00,29.6,26.2,30.05,WNW,296,6.6,9.2,87,0.00,-SN,,0.00,0.0,WeatherDisplay:10.37,2013-01-01 11:17:00,
2013-01-01 06:22:00,29.6,26.2,30.05,WNW,301,4.1,6.0,87,0.00,-SN,,0.00,0.0,WeatherDisplay:10.37,2013-01-01 11:22:00,
2013-01-01 06:27:00,29.6,26.5,30.05,WNW,294,4.7,6.9,88,0.00,-SN,,0.00,0.0,WeatherDisplay:10.37,2013-01-01 11:27:00,
2013-01-01 06:32:00,29.5,26.4,30.05,WNW,302,4.6,4.6,88,0.00,-SN,,0.00,0.0,WeatherDisplay:10.37,2013-01-01 11:32:00,
2013-01-01 06:37:00,29.5,26.4,30.06,NNW,333,3.4,4.6,88,0.00,-SN,,0.00,0.0,WeatherDisplay:10.37,2013-01-01 11:37:00,
2013-01-01 06:42:00,29.5,26.4,30.05,NW,319,4.8,6.9,88,0.00,-SN,,0.00,0.0,WeatherDisplay:10.37,2013-01-01 11:42:00,
2013-01-01 06:47:00,29.5,26.4,30.05,WNW,298,3.1,4.6,88,0.00,-SN,,0.00,0.0,WeatherDisplay:10.37,2013-01-01 11:47:00,
2013-01-01 06:52:00,29.5,26.1,30.05,NNW,338,3.2,5.8,87,0.00,-SN,,0.00,0.0,WeatherDisplay:10.37,2013-01-01 11:52:00,
2013-01-01 06:57:00,29.5,26.4,30.05,NW,313,2.1,3.0,88,0.00,-SN,,0.00,0.0,WeatherDisplay:10.37,2013-01-01 11:57:00,
2013-01-01 07:02:00,29.5,26.1,30.05,WNW,293,3.6,6.0,87,0.00,OVC,,0.00,0.0,WeatherDisplay:10.37,2013-01-01 12:02:00,
2013-01-01 07:07:00,29.5,26.1,30.05,NW,315,3.6,4.6,87,0.00,OVC,,0.00,0.0,WeatherDisplay:10.37,2013-01-01 12:07:00,
2013-01-01 07:12:00,29.4,26.3,30.05,NW,310,1.9,4.6,88,0.00,OVC,,0.00,0.0,WeatherDisplay:10.37,2013-01-01 12:12:00,
2013-01-01 07:17:00,29.4,26.0,30.06,NW,308,4.5,4.6,87,0.00,OVC,,0.00,0.0,WeatherDisplay:10.37,2013-01-01 12:17:00,
2013-01-01 07:22:00,29.3,25.6,30.06,NW,305,2.8,4.6,86,0.00,OVC,,0.00,0.0,WeatherDisplay:10.37,2013-01-01 12:22:00,
2013-01-01 07:27:00,29.3,25.4,30.06,NNW,334,5.3,5.8,85,0.00,OVC,,0.00,0.0,WeatherDisplay:10.37,2013-01-01 12:27:00,
2013-01-01 07:32:00,29.3,25.9,30.06,NW,316,3.6,4.6,87,0.00,OVC,,0.00,0.0,WeatherDisplay:10.37,2013-01-01 12:32:00,
2013-01-01 07:37:00,29.3,25.6,30.06,NW,320,3.7,6.0,86,0.00,OVC,,0.00,0.0,WeatherDisplay:10.37,2013-01-01 12:37:00,
2013-01-01 07:42:00,29.3,25.9,30.07,NW,310,2.1,3.5,87,0.00,OVC,,0.00,0.0,WeatherDisplay:10.37,2013-01-01 12:42:00,
2013-01-01 07:47:00,29.2,25.5,30.07,NW,317,3.1,3.5,86,0.00,OVC,,0.00,0.0,WeatherDisplay:10.37,2013-01-01 12:47:00,
2013-01-01 07:52:00,29.2,25.5,30.07,NW,315,3.1,3.5,86,0.00,OVC,,0.00,0.0,WeatherDisplay:10.37,2013-01-01 12:52:00,
2013-01-01 07:57:00,29.2,25.3,30.06,NW,311,4.0,4.6,85,0.00,OVC,,0.00,0.0,WeatherDisplay:10.37,2013-01-01 12:57:00,
2013-01-01 08:02:00,29.2,25.3,30.06,NNW,344,2.3,6.0,85,0.00,-SN,,0.00,0.0,WeatherDisplay:10.37,2013-01-01 13:02:00,
2013-01-01 08:07:00,29.2,25.5,30.06,NW,323,2.7,3.5,86,0.00,-SN,,0.00,0.0,WeatherDisplay:10.37,2013-01-01 13:07:00,
2013-01-01 08:12:00,29.1,25.2,30.06,North,355,3.2,3.5,85,0.00,-SN,,0.00,0.0,WeatherDisplay:10.37,2013-01-01 13:12:00,
2013-01-01 08:17:00,29.1,25.4,30.06,NNW,327,3.9,5.0,86,0.00,-SN,,0.00,0.0,WeatherDisplay:10.37,2013-01-01 13:17:00,
2013-01-01 08:22:00,29.1,25.2,30.06,NW,321,4.4,4.6,85,0.00,-SN,,0.00,0.0,WeatherDisplay:10.37,2013-01-01 13:22:00,
2013-01-01 08:27:00,29.1,25.4,30.07,NNE,13,4.7,4.7,86,0.00,-SN,,0.00,0.0,WeatherDisplay:10.37,2013-01-01 13:27:00,
2013-01-01 08:32:00,29.0,25.3,30.07,NNW,333,2.2,3.5,86,0.00,-SN,,0.00,0.0,WeatherDisplay:10.37,2013-01-01 13:32:00,
2013-01-01 08:37:00,29.0,25.1,30.07,NNW,327,4.8,5.8,85,0.00,-SN,,0.00,0.0,WeatherDisplay:10.37,2013-01-01 13:37:00,
2013-01-01 08:42:00,29.0,25.1,30.07,NW,322,6.4,10.4,85,0.00,-SN,,0.00,0.0,WeatherDisplay:10.37,2013-01-01 13:42:00,
2013-01-01 08:47:00,28.9,25.0,30.07,North,5,3.4,4.6,85,0.00,-SN,,0.00,0.0,WeatherDisplay:10.37,2013-01-01 13:47:00,
2013-01-01 08:52:00,28.9,25.0,30.08,NW,323,4.8,6.9,85,0.00,-SN,,0.00,0.0,WeatherDisplay:10.37,2013-01-01 13:52:00,
2013-01-01 08:57:00,28.8,24.9,30.08,NW,319,3.5,5.0,85,0.00,-SN,,0.00,0.0,WeatherDisplay:10.37,2013-01-01 13:57:00,
2013-01-01 09:02:00,28.8,24.9,30.08,NNW,340,3.7,6.9,85,0.00,OVC,,0.00,5.0,WeatherDisplay:10.37,2013-01-01 14:02:00,
2013-01-01 09:07:00,28.8,24.9,30.08,NW,320,7.7,10.4,85,0.00,OVC,,0.00,9.0,WeatherDisplay:10.37,2013-01-01 14:07:00,
2013-01-01 09:12:00,28.7,24.8,30.09,NNW,336,6.8,9.2,85,0.00,OVC,,0.00,9.0,WeatherDisplay:10.37,2013-01-01 14:12:00,
2013-01-01 09:17:00,28.6,24.7,30.09,NNW,333,3.7,8.1,85,0.00,OVC,,0.00,16.0,WeatherDisplay:10.37,2013-01-01 14:17:00,
2013-01-01 09:22:00,28.6,24.4,30.10,NNW,338,3.8,5.0,84,0.00,OVC,,0.00,14.0,WeatherDisplay:10.37,2013-01-01 14:22:00,
2013-01-01 09:27:00,28.5,24.3,30.11,NNW,337,5.3,11.5,84,0.00,OVC,,0.00,12.0,WeatherDisplay:10.37,2013-01-01 14:27:00,
2013-01-01 09:32:00,28.4,24.7,30.12,NNW,343,6.1,9.2,86,0.00,OVC,,0.00,11.0,WeatherDisplay:10.37,2013-01-01 14:32:00,
2013-01-01 09:37:00,28.4,24.5,30.12,NNW,336,5.4,8.0,85,0.00,OVC,,0.00,12.0,WeatherDisplay:10.37,2013-01-01 14:37:00,
2013-01-01 09:42:00,28.3,24.6,30.12,NW,315,4.5,8.1,86,0.00,OVC,,0.00,12.0,WeatherDisplay:10.37,2013-01-01 14:42:00,
2013-01-01 09:47:00,28.1,24.5,30.11,North,355,4.7,8.1,86,0.00,OVC,,0.00,16.0,WeatherDisplay:10.37,2013-01-01 14:47:00,
2013-01-01 09:52:00,27.9,23.7,30.11,NNE,22,5.6,8.0,84,0.00,OVC,,0.00,18.0,WeatherDisplay:10.37,2013-01-01 14:52:00,
2013-01-01 09:57:00,27.8,23.6,30.11,NNW,335,5.8,8.1,84,0.00,OVC,,0.00,18.0,WeatherDisplay:10.37,2013-01-01 14:57:00,
2013-01-01 10:02:00,27.7,23.5,30.11,NNW,345,4.9,9.2,84,0.00,OVC,,0.00,23.0,WeatherDisplay:10.37,2013-01-01 15:02:00,
2013-01-01 10:07:00,27.6,23.7,30.11,NNE,24,6.1,10.4,85,0.00,OVC,,0.00,18.0,WeatherDisplay:10.37,2013-01-01 15:07:00,
2013-01-01 10:12:00,27.5,23.3,30.11,NNW,328,5.5,8.1,84,0.00,OVC,,0.00,14.0,WeatherDisplay:10.37,2013-01-01 15:12:00,
2013-01-01 10:17:00,27.4,22.9,30.11,NNE,13,7.4,10.0,83,0.00,OVC,,0.00,14.0,WeatherDisplay:10.37,2013-01-01 15:17:00,
2013-01-01 10:22:00,27.3,22.8,30.11,North,10,6.4,10.4,83,0.00,OVC,,0.00,18.0,WeatherDisplay:10.37,2013-01-01 15:22:00,
2013-01-01 10:27:00,27.0,23.1,30.12,North,5,4.8,8.1,85,0.00,OVC,,0.00,26.0,WeatherDisplay:10.37,2013-01-01 15:27:00,
2013-01-01 10:32:00,27.0,22.8,30.12,NNE,17,6.6,9.2,84,0.00,OVC,,0.00,26.0,WeatherDisplay:10.37,2013-01-01 15:32:00,
2013-01-01 10:37:00,26.9,22.4,30.12,NNE,12,6.8,11.5,83,0.00,OVC,,0.00,25.0,WeatherDisplay:10.37,2013-01-01 15:37:00,
2013-01-01 10:42:00,26.7,22.2,30.13,North,5,6.6,11.5,83,0.00,OVC,,0.00,25.0,WeatherDisplay:10.37,2013-01-01 15:42:00,
2013-01-01 10:47:00,26.7,21.9,30.13,NE,37,5.8,8.1,82,0.00,OVC,,0.00,30.0,WeatherDisplay:10.37,2013-01-01 15:47:00,
2013-01-01 10:52:00,26.6,22.1,30.13,NNE,16,4.8,9.2,83,0.00,OVC,,0.00,32.0,WeatherDisplay:10.37,2013-01-01 15:52:00,
2013-01-01 10:57:00,26.6,21.8,30.13,NNE,19,7.1,12.0,82,0.00,OVC,,0.00,32.0,WeatherDisplay:10.37,2013-01-01 15:57:00,
2013-01-01 11:02:00,26.5,22.3,30.13,NNE,21,7.0,9.2,84,0.00,-SN,,0.00,37.0,WeatherDisplay:10.37,2013-01-01 16:02:00,
2013-01-01 11:07:00,26.3,22.4,30.13,NNW,327,6.9,10.4,85,0.00,-SN,,0.00,39.0,WeatherDisplay:10.37,2013-01-01 16:07:00,
2013-01-01 11:12:00,26.2,21.7,30.12,North,355,6.8,9.2,83,0.00,-SN,,0.00,49.0,WeatherDisplay:10.37,2013-01-01 16:12:00,
2013-01-01 11:17:00,26.2,21.7,30.11,NW,312,6.0,9.2,83,0.00,-SN,,0.00,53.0,WeatherDisplay:10.37,2013-01-01 16:17:00,
2013-01-01 11:22:00,26.2,21.7,30.11,North,355,4.3,6.9,83,0.00,-SN,,0.00,60.0,WeatherDisplay:10.37,2013-01-01 16:22:00,
2013-01-01 11:27:00,26.2,21.5,30.10,NNE,30,5.0,9.2,82,0.00,-SN,,0.00,72.0,WeatherDisplay:10.37,2013-01-01 16:27:00,
2013-01-01 11:32:00,26.2,21.5,30.09,NNE,24,5.6,12.7,82,0.00,-SN,,0.00,56.0,WeatherDisplay:10.37,2013-01-01 16:32:00,
2013-01-01 11:37:00,26.2,21.7,30.09,North,360,6.0,10.4,83,0.00,-SN,,0.00,62.0,WeatherDisplay:10.37,2013-01-01 16:37:00,
2013-01-01 11:42:00,26.2,21.5,30.10,NNW,331,4.2,11.5,82,0.00,-SN,,0.00,69.0,WeatherDisplay:10.37,2013-01-01 16:42:00,
2013-01-01 11:47:00,26.3,21.6,30.10,North,360,4.1,9.2,82,0.00,-SN,,0.00,72.0,WeatherDisplay:10.37,2013-01-01 16:47:00,
2013-01-01 11:52:00,26.4,21.7,30.10,North,355,5.4,9.2,82,0.00,-SN,,0.00,56.0,WeatherDisplay:10.37,2013-01-01 16:52:00,
2013-01-01 11:57:00,26.4,21.7,30.10,NNW,348,4.6,5.0,82,0.00,-SN,,0.00,56.0,WeatherDisplay:10.37,2013-01-01 16:57:00,
2013-01-01 12:02:00,26.5,22.0,30.10,North,5,4.3,6.0,83,0.00,-SN,,0.00,62.0,WeatherDisplay:10.37,2013-01-01 17:02:00,
2013-01-01 12:07:00,26.5,21.7,30.09,North,5,5.4,6.0,82,0.00,-SN,,0.00,54.0,WeatherDisplay:10.37,2013-01-01 17:07:00,
2013-01-01 12:12:00,26.5,21.5,30.09,NNW,346,8.1,9.0,81,0.00,-SN,,0.00,39.0,WeatherDisplay:10.37,2013-01-01 17:12:00,
2013-01-01 12:17:00,26.4,21.7,30.09,NE,49,2.8,9.2,82,0.00,-SN,,0.00,30.0,WeatherDisplay:10.37,2013-01-01 17:17:00,
2013-01-01 12:22:00,26.4,21.7,30.10,NNW,333,4.4,8.1,82,0.00,-SN,,0.00,58.0,WeatherDisplay:10.37,2013-01-01 17:22:00,
2013-01-01 12:27:00,26.4,21.7,30.10,NNW,327,4.5,6.0,82,0.00,-SN,,0.00,63.0,WeatherDisplay:10.37,2013-01-01 17:27:00,
2013-01-01 12:32:00,26.3,21.3,30.09,North,11,5.1,9.2,81,0.00,-SN,,0.00,56.0,WeatherDisplay:10.37,2013-01-01 17:32:00,
2013-01-01 12:37:00,26.3,21.6,30.10,NNW,329,4.1,6.9,82,0.00,-SN,,0.00,28.0,WeatherDisplay:10.37,2013-01-01 17:37:00,
2013-01-01 12:42:00,26.1,21.6,30.10,NNE,16,5.3,8.1,83,0.00,-SN,,0.00,35.0,WeatherDisplay:10.37,2013-01-01 17:42:00,
2013-01-01 12:47:00,26.0,21.5,30.10,NNE,24,3.6,6.9,83,0.00,-SN,,0.00,37.0,WeatherDisplay:10.37,2013-01-01 17:47:00,
2013-01-01 12:52:00,26.0,21.3,30.09,NNW,345,4.5,6.9,82,0.00,-SN,,0.00,69.0,WeatherDisplay:10.37,2013-01-01 17:52:00,
2013-01-01 12:57:00,26.0,21.5,30.08,North,355,4.5,8.1,83,0.00,-SN,,0.00,47.0,WeatherDisplay:10.37,2013-01-01 17:57:00,
2013-01-01 13:02:00,25.9,21.2,30.08,North,5,2.7,5.0,82,0.00,-SN,,0.00,56.0,WeatherDisplay:10.37,2013-01-01 18:02:00,
2013-01-01 13:07:00,25.8,21.1,30.08,North,9,4.0,4.6,82,0.00,-SN,,0.00,56.0,WeatherDisplay:10.37,2013-01-01 18:07:00,
2013-01-01 13:12:00,25.9,21.7,30.08,North,349,3.8,6.0,84,0.00,-SN,,0.00,63.0,WeatherDisplay:10.37,2013-01-01 18:12:00,
2013-01-01 13:17:00,25.9,21.2,30.08,NNW,345,3.0,5.8,82,0.00,-SN,,0.00,37.0,WeatherDisplay:10.37,2013-01-01 18:17:00,
2013-01-01 13:22:00,25.9,21.7,30.08,North,360,7.0,11.5,84,0.00,-SN,,0.00,44.0,WeatherDisplay:10.37,2013-01-01 18:22:00,
2013-01-01 13:27:00,25.8,21.6,30.09,North,360,4.6,10.4,84,0.00,-SN,,0.00,84.0,WeatherDisplay:10.37,2013-01-01 18:27:00,
2013-01-01 13:32:00,25.8,21.6,30.09,North,351,3.0,6.0,84,0.00,-SN,,0.00,83.0,WeatherDisplay:10.37,2013-01-01 18:32:00,
2013-01-01 13:37:00,25.9,21.7,30.09,NW,319,3.2,5.8,84,0.00,-SN,,0.00,81.0,WeatherDisplay:10.37,2013-01-01 18:37:00,
2013-01-01 13:42:00,25.9,21.4,30.09,NNW,331,6.0,9.0,83,0.00,-SN,,0.00,88.0,WeatherDisplay:10.37,2013-01-01 18:42:00,
2013-01-01 13:47:00,26.0,21.5,30.09,North,355,7.4,10.4,83,0.00,-SN,,0.00,93.0,WeatherDisplay:10.37,2013-01-01 18:47:00,
2013-01-01 13:52:00,26.0,21.8,30.09,NNE,14,3.7,6.9,84,0.00,-SN,,0.00,102.0,WeatherDisplay:10.37,2013-01-01 18:52:00,
2013-01-01 13:57:00,26.1,21.6,30.09,NNW,337,5.9,5.9,83,0.00,-SN,,0.00,93.0,WeatherDisplay:10.37,2013-01-01 18:57:00,
2013-01-01 14:02:00,26.2,21.7,30.09,NNW,336,4.3,5.8,83,0.00,-SN,,0.00,88.0,WeatherDisplay:10.37,2013-01-01 19:02:00,
2013-01-01 14:07:00,26.3,21.6,30.09,NW,310,6.6,8.1,82,0.00,-SN,,0.00,86.0,WeatherDisplay:10.37,2013-01-01 19:07:00,
2013-01-01 14:12:00,26.2,21.5,30.08,NNW,338,5.4,11.5,82,0.00,-SN,,0.00,93.0,WeatherDisplay:10.37,2013-01-01 19:12:00,
2013-01-01 14:17:00,26.1,21.1,30.06,NW,316,2.7,8.1,81,0.00,-SN,,0.00,91.0,WeatherDisplay:10.37,2013-01-01 19:17:00,
2013-01-01 14:22:00,26.0,21.5,30.06,NW,325,5.0,5.0,83,0.00,-SN,,0.00,93.0,WeatherDisplay:10.37,2013-01-01 19:22:00,
2013-01-01 14:27:00,25.9,21.4,30.06,NW,313,6.9,8.1,83,0.00,-SN,,0.00,88.0,WeatherDisplay:10.37,2013-01-01 19:27:00,
2013-01-01 14:32:00,25.8,21.1,30.07,NNW,341,6.0,10.0,82,0.00,-SN,,0.00,90.0,WeatherDisplay:10.37,2013-01-01 19:32:00,
2013-01-01 14:37:00,25.7,21.0,30.07,NNW,337,6.2,10.4,82,0.00,-SN,,0.00,93.0,WeatherDisplay:10.37,2013-01-01 19:37:00,
2013-01-01 14:42:00,25.7,20.7,30.08,North,360,7.8,8.1,81,0.00,-SN,,0.00,91.0,WeatherDisplay:10.37,2013-01-01 19:42:00,
2013-01-01 14:47:00,25.6,20.9,30.07,NW,317,6.1,10.4,82,0.00,-SN,,0.00,81.0,WeatherDisplay:10.37,2013-01-01 19:47:00,
2013-01-01 14:52:00,25.6,21.2,30.08,NNW,327,6.5,6.9,83,0.00,-SN,,0.00,65.0,WeatherDisplay:10.37,2013-01-01 19:52:00,
2013-01-01 14:57:00,25.5,20.8,30.08,NNW,344,4.6,5.0,82,0.00,-SN,,0.00,67.0,WeatherDisplay:10.37,2013-01-01 19:57:00,
2013-01-01 15:02:00,25.4,21.0,30.09,North,360,6.0,10.4,83,0.00,-SN,,0.00,58.0,WeatherDisplay:10.37,2013-01-01 20:02:00,
2013-01-01 15:07:00,25.3,20.6,30.08,NNW,346,4.2,6.9,82,0.00,-SN,,0.00,56.0,WeatherDisplay:10.37,2013-01-01 20:07:00,
2013-01-01 15:12:00,25.2,20.5,30.09,NW,319,6.4,11.5,82,0.00,-SN,,0.00,39.0,WeatherDisplay:10.37,2013-01-01 20:12:00,
2013-01-01 15:17:00,25.1,20.4,30.09,NW,305,4.1,6.9,82,0.00,-SN,,0.00,37.0,WeatherDisplay:10.37,2013-01-01 20:17:00,
2013-01-01 15:22:00,25.0,20.0,30.10,NNW,328,6.3,7.0,81,0.00,-SN,,0.00,35.0,WeatherDisplay:10.37,2013-01-01 20:22:00,
2013-01-01 15:27:00,24.9,19.9,30.10,NNW,338,4.3,6.9,81,0.00,-SN,,0.00,28.0,WeatherDisplay:10.37,2013-01-01 20:27:00,
2013-01-01 15:32:00,24.7,20.0,30.10,NNW,334,3.8,6.0,82,0.00,-SN,,0.00,26.0,WeatherDisplay:10.37,2013-01-01 20:32:00,
2013-01-01 15:37:00,24.6,19.9,30.11,NW,305,2.7,5.8,82,0.00,-SN,,0.00,23.0,WeatherDisplay:10.37,2013-01-01 20:37:00,
2013-01-01 15:42:00,24.6,19.9,30.11,NW,319,5.4,8.1,82,0.00,-SN,,0.00,35.0,WeatherDisplay:10.37,2013-01-01 20:42:00,
2013-01-01 15:47:00,24.6,19.9,30.10,NNW,327,4.6,8.1,82,0.00,-SN,,0.00,35.0,WeatherDisplay:10.37,2013-01-01 20:47:00,
2013-01-01 15:52:00,24.5,20.1,30.10,WNW,302,4.6,8.0,83,0.00,-SN,,0.00,35.0,WeatherDisplay:10.37,2013-01-01 20:52:00,
2013-01-01 15:57:00,24.4,19.7,30.11,NW,310,5.4,5.8,82,0.00,-SN,,0.00,26.0,WeatherDisplay:10.37,2013-01-01 20:57:00,
2013-01-01 16:02:00,24.3,19.6,30.11,NNW,327,4.0,5.8,82,0.00,-SN,,0.00,25.0,WeatherDisplay:10.37,2013-01-01 21:02:00,
2013-01-01 16:07:00,24.3,19.9,30.10,NW,319,2.2,4.6,83,0.00,-SN,,0.00,23.0,WeatherDisplay:10.37,2013-01-01 21:07:00,
2013-01-01 16:12:00,24.3,19.9,30.11,NNW,338,3.3,4.6,83,0.00,-SN,,0.00,19.0,WeatherDisplay:10.37,2013-01-01 21:12:00,
2013-01-01 16:17:00,24.3,20.2,30.11,WNW,300,2.8,3.0,84,0.00,-SN,,0.00,9.0,WeatherDisplay:10.37,2013-01-01 21:17:00,
2013-01-01 16:22:00,24.2,20.1,30.11,NW,319,3.6,4.0,84,0.00,-SN,,0.00,9.0,WeatherDisplay:10.37,2013-01-01 21:22:00,
2013-01-01 16:27:00,24.1,19.7,30.11,NW,315,3.1,6.9,83,0.00,-SN,,0.00,5.0,WeatherDisplay:10.37,2013-01-01 21:27:00,
2013-01-01 16:32:00,24.0,19.6,30.11,NW,313,3.0,3.5,83,0.00,-SN,,0.00,0.0,WeatherDisplay:10.37,2013-01-01 21:32:00,
2013-01-01 16:37:00,24.0,19.9,30.11,NW,315,1.5,3.5,84,0.00,-SN,,0.00,0.0,WeatherDisplay:10.37,2013-01-01 21:37:00,
2013-01-01 16:42:00,23.9,19.5,30.11,NW,310,3.6,4.6,83,0.00,-SN,,0.00,0.0,WeatherDisplay:10.37,2013-01-01 21:42:00,
2013-01-01 16:47:00,23.9,19.5,30.11,WNW,296,3.9,6.0,83,0.00,-SN,,0.00,0.0,WeatherDisplay:10.37,2013-01-01 21:47:00,
2013-01-01 16:52:00,23.8,19.7,30.11,WNW,294,2.4,5.8,84,0.00,-SN,,0.00,0.0,WeatherDisplay:10.37,2013-01-01 21:52:00,
2013-01-01 16:57:00,23.8,19.7,30.11,WNW,302,2.3,3.5,84,0.00,-SN,,0.00,0.0,WeatherDisplay:10.37,2013-01-01 21:57:00,
2013-01-01 17:02:00,23.8,19.7,30.11,NNW,331,6.6,9.2,84,0.00,-SN,,0.00,0.0,WeatherDisplay:10.37,2013-01-01 22:02:00,
2013-01-01 17:07:00,23.7,19.3,30.11,WNW,286,3.4,4.6,83,0.00,-SN,,0.00,0.0,WeatherDisplay:10.37,2013-01-01 22:07:00,
2013-01-01 17:12:00,23.7,19.6,30.11,WNW,288,5.1,5.8,84,0.00,-SN,,0.00,0.0,WeatherDisplay:10.37,2013-01-01 22:12:00,
2013-01-01 17:17:00,23.6,19.2,30.11,NW,314,3.4,4.6,83,0.00,-SN,,0.00,0.0,WeatherDisplay:10.37,2013-01-01 22:17:00,
2013-01-01 17:22:00,23.6,19.2,30.11,WNW,296,3.4,4.0,83,0.00,-SN,,0.00,0.0,WeatherDisplay:10.37,2013-01-01 22:22:00,
2013-01-01 17:27:00,23.6,19.2,30.11,WNW,292,3.8,4.6,83,0.00,-SN,,0.00,0.0,WeatherDisplay:10.37,2013-01-01 22:27:00,
2013-01-01 17:32:00,23.6,19.2,30.11,NW,320,3.2,4.6,83,0.00,-SN,,0.00,0.0,WeatherDisplay:10.37,2013-01-01 22:32:00,
2013-01-01 17:37:00,23.6,18.9,30.11,NW,321,2.9,3.5,82,0.00,-SN,,0.00,0.0,WeatherDisplay:10.37,2013-01-01 22:37:00,
2013-01-01 17:42:00,23.5,19.1,30.12,WNW,301,5.5,5.5,83,0.00,-SN,,0.00,0.0,WeatherDisplay:10.37,2013-01-01 22:42:00,
2013-01-01 17:47:00,23.5,19.1,30.11,North,350,4.6,4.6,83,0.00,-SN,,0.00,0.0,WeatherDisplay:10.37,2013-01-01 22:47:00,
2013-01-01 17:52:00,23.5,19.1,30.11,North,350,4.1,5.8,83,0.00,-SN,,0.00,0.0,WeatherDisplay:10.37,2013-01-01 22:52:00,
2013-01-01 17:57:00,23.5,19.1,30.11,NW,321,3.2,4.6,83,0.00,-SN,,0.00,0.0,WeatherDisplay:10.37,2013-01-01 22:57:00,
2013-01-01 18:02:00,23.5,19.1,30.11,NNW,329,3.6,5.8,83,0.00,-SN,,0.00,0.0,WeatherDisplay:10.37,2013-01-01 23:02:00,
2013-01-01 18:07:00,23.5,18.8,30.11,NW,311,5.2,5.8,82,0.00,-SN,,0.00,0.0,WeatherDisplay:10.37,2013-01-01 23:07:00,
2013-01-01 18:12:00,23.5,18.8,30.11,NNW,333,3.4,4.6,82,0.00,-SN,,0.00,0.0,WeatherDisplay:10.37,2013-01-01 23:12:00,
2013-01-01 18:17:00,23.5,18.8,30.11,NW,316,4.3,5.8,82,0.00,-SN,,0.00,0.0,WeatherDisplay:10.37,2013-01-01 23:17:00,
2013-01-01 18:22:00,23.5,18.5,30.11,WNW,299,4.2,6.9,81,0.00,-SN,,0.00,0.0,WeatherDisplay:10.37,2013-01-01 23:22:00,
2013-01-01 18:27:00,23.5,18.5,30.11,NW,309,2.3,3.5,81,0.00,-SN,,0.00,0.0,WeatherDisplay:10.37,2013-01-01 23:27:00,
2013-01-01 18:32:00,23.4,18.4,30.11,WNW,288,5.0,6.0,81,0.00,-SN,,0.00,0.0,WeatherDisplay:10.37,2013-01-01 23:32:00,
2013-01-01 18:37:00,23.4,18.1,30.11,West,259,5.6,9.2,80,0.00,-SN,,0.00,0.0,WeatherDisplay:10.37,2013-01-01 23:37:00,
2013-01-01 18:42:00,23.3,17.7,30.11,WNW,284,3.0,3.5,79,0.00,-SN,,0.00,0.0,WeatherDisplay:10.37,2013-01-01 23:42:00,
2013-01-01 18:47:00,23.3,17.7,30.11,WNW,293,2.0,3.5,79,0.00,-SN,,0.00,0.0,WeatherDisplay:10.37,2013-01-01 23:47:00,
2013-01-01 18:52:00,23.2,18.2,30.11,WNW,301,2.0,2.3,81,0.00,-SN,,0.00,0.0,WeatherDisplay:10.37,2013-01-01 23:52:00,
2013-01-01 18:57:00,23.2,18.2,30.11,NW,304,2.6,3.5,81,0.00,-SN,,0.00,0.0,WeatherDisplay:10.37,2013-01-01 23:57:00,
2013-01-01 19:02:00,23.2,17.9,30.11,NW,309,2.9,3.5,80,0.00,OVC,,0.00,0.0,WeatherDisplay:10.37,2013-01-02 00:02:00,
2013-01-01 19:07:00,23.2,18.2,30.11,WNW,302,3.9,6.9,81,0.00,OVC,,0.00,0.0,WeatherDisplay:10.37,2013-01-02 00:07:00,
2013-01-01 19:12:00,23.2,18.2,30.11,NW,322,3.8,5.8,81,0.00,OVC,,0.00,0.0,WeatherDisplay:10.37,2013-01-02 00:12:00,
2013-01-01 19:17:00,23.3,18.3,30.11,WNW,300,2.0,2.3,81,0.00,OVC,,0.00,0.0,WeatherDisplay:10.37,2013-01-02 00:17:00,
2013-01-01 19:22:00,23.3,18.3,30.11,NW,316,2.2,3.5,81,0.00,OVC,,0.00,0.0,WeatherDisplay:10.37,2013-01-02 00:22:00,
2013-01-01 19:27:00,23.2,17.9,30.11,West,270,2.8,3.5,80,0.00,OVC,,0.00,0.0,WeatherDisplay:10.37,2013-01-02 00:27:00,
2013-01-01 19:32:00,23.2,17.9,30.11,West,277,3.1,6.9,80,0.00,OVC,,0.00,0.0,WeatherDisplay:10.37,2013-01-02 00:32:00,
2013-01-01 19:37:00,23.2,18.2,30.11,West,259,1.2,3.5,81,0.00,OVC,,0.00,0.0,WeatherDisplay:10.37,2013-01-02 00:37:00,
2013-01-01 19:42:00,23.2,18.2,30.11,West,269,1.4,2.3,81,0.00,OVC,,0.00,0.0,WeatherDisplay:10.37,2013-01-02 00:42:00,
2013-01-01 19:47:00,23.2,18.5,30.11,WNW,285,1.7,2.3,82,0.00,OVC,,0.00,0.0,WeatherDisplay:10.37,2013-01-02 00:47:00,
2013-01-01 19:52:00,23.1,18.1,30.12,WNW,298,1.3,3.5,81,0.00,OVC,,0.00,0.0,WeatherDisplay:10.37,2013-01-02 00:52:00,
2013-01-01 19:57:00,23.1,18.1,30.11,WNW,290,1.3,3.5,81,0.00,OVC,,0.00,0.0,WeatherDisplay:10.37,2013-01-02 00:57:00,
2013-01-01 20:02:00,23.1,18.1,30.11,West,275,1.2,3.5,81,0.00,OVC,,0.00,0.0,WeatherDisplay:10.37,2013-01-02 01:02:00,
2013-01-01 20:07:00,23.1,18.1,30.10,West,270,1.9,4.6,81,0.00,OVC,,0.00,0.0,WeatherDisplay:10.37,2013-01-02 01:07:00,
2013-01-01 20:12:00,23.1,17.8,30.11,West,281,2.8,4.6,80,0.00,OVC,,0.00,0.0,WeatherDisplay:10.37,2013-01-02 01:12:00,
2013-01-01 20:17:00,23.1,18.1,30.11,West,259,2.6,3.5,81,0.00,OVC,,0.00,0.0,WeatherDisplay:10.37,2013-01-02 01:17:00,
2013-01-01 20:22:00,23.1,17.8,30.12,West,262,5.4,5.8,80,0.00,OVC,,0.00,0.0,WeatherDisplay:10.37,2013-01-02 01:22:00,
2013-01-01 20:27:00,23.0,17.7,30.12,WSW,238,3.7,6.0,80,0.00,OVC,,0.00,0.0,WeatherDisplay:10.37,2013-01-02 01:27:00,
2013-01-01 20:32:00,23.1,17.6,30.12,West,276,6.1,9.2,79,0.00,OVC,,0.00,0.0,WeatherDisplay:10.37,2013-01-02 01:32:00,
2013-01-01 20:37:00,23.1,17.8,30.12,WNW,294,3.4,5.8,80,0.00,OVC,,0.00,0.0,WeatherDisplay:10.37,2013-01-02 01:37:00,
2013-01-01 20:42:00,23.0,17.5,30.13,WSW,250,5.5,6.9,79,0.00,OVC,,0.00,0.0,WeatherDisplay:10.37,2013-01-02 01:42:00,
2013-01-01 20:47:00,23.0,17.5,30.12,WSW,249,3.4,4.0,79,0.00,OVC,,0.00,0.0,WeatherDisplay:10.37,2013-01-02 01:47:00,
2013-01-01 20:52:00,23.0,17.2,30.12,WSW,250,4.5,5.8,78,0.00,OVC,,0.00,0.0,WeatherDisplay:10.37,2013-01-02 01:52:00,
2013-01-01 20:57:00,22.9,17.7,30.12,WNW,283,2.3,3.5,80,0.00,OVC,,0.00,0.0,WeatherDisplay:10.37,2013-01-02 01:57:00,
2013-01-01 21:02:00,22.9,17.4,30.12,WSW,254,4.6,4.6,79,0.00,OVC,,0.00,0.0,WeatherDisplay:10.37,2013-01-02 02:02:00,
2013-01-01 21:07:00,22.9,17.4,30.12,West,261,4.9,6.9,79,0.00,OVC,,0.00,0.0,WeatherDisplay:10.37,2013-01-02 02:07:00,
2013-01-01 21:12:00,22.9,17.4,30.12,WSW,248,2.3,5.0,79,0.00,OVC,,0.00,0.0,WeatherDisplay:10.37,2013-01-02 02:12:00,
2013-01-01 21:17:00,22.8,17.3,30.12,WSW,256,3.7,6.9,79,0.00,OVC,,0.00,0.0,WeatherDisplay:10.37,2013-01-02 02:17:00,
2013-01-01 21:22:00,22.8,17.0,30.12,West,275,5.9,6.9,78,0.00,OVC,,0.00,0.0,WeatherDisplay:10.37,2013-01-02 02:22:00,
2013-01-01 21:27:00,22.7,17.2,30.13,West,269,3.5,5.8,79,0.00,OVC,,0.00,0.0,WeatherDisplay:10.37,2013-01-02 02:27:00,
2013-01-01 21:32:00,22.7,17.5,30.12,WSW,254,2.1,5.0,80,0.00,OVC,,0.00,0.0,WeatherDisplay:10.37,2013-01-02 02:32:00,
2013-01-01 21:37:00,22.6,17.1,30.12,WNW,285,2.0,3.5,79,0.00,OVC,,0.00,0.0,WeatherDisplay:10.37,2013-01-02 02:37:00,
2013-01-01 21:42:00,22.5,17.0,30.12,WSW,241,1.7,3.5,79,0.00,OVC,,0.00,0.0,WeatherDisplay:10.37,2013-01-02 02:42:00,
2013-01-01 21:47:00,22.5,17.0,30.12,WSW,238,4.7,6.0,79,0.00,OVC,,0.00,0.0,WeatherDisplay:10.37,2013-01-02 02:47:00,
2013-01-01 21:52:00,22.5,17.0,30.13,WSW,257,4.5,6.0,79,0.00,OVC,,0.00,0.0,WeatherDisplay:10.37,2013-01-02 02:52:00,
2013-01-01 21:57:00,22.4,16.6,30.12,WSW,256,3.6,6.9,78,0.00,OVC,,0.00,0.0,WeatherDisplay:10.37,2013-01-02 02:57:00,
2013-01-01 22:02:00,22.4,16.9,30.12,WSW,252,4.6,6.0,79,0.00,OVC,,0.00,0.0,WeatherDisplay:10.37,2013-01-02 03:02:00,
2013-01-01 22:07:00,22.3,16.5,30.12,West,278,5.2,6.0,78,0.00,OVC,,0.00,0.0,WeatherDisplay:10.37,2013-01-02 03:07:00,
2013-01-01 22:12:00,22.2,17.0,30.12,WSW,256,3.4,5.0,80,0.00,OVC,,0.00,0.0,WeatherDisplay:10.37,2013-01-02 03:12:00,
2013-01-01 22:17:00,22.1,16.6,30.13,West,275,5.2,8.1,79,0.00,OVC,,0.00,0.0,WeatherDisplay:10.37,2013-01-02 03:17:00,
2013-01-01 22:22:00,22.0,16.5,30.13,West,263,3.9,6.9,79,0.00,OVC,,0.00,0.0,WeatherDisplay:10.37,2013-01-02 03:22:00,
2013-01-01 22:27:00,21.9,16.4,30.13,West,276,4.5,8.1,79,0.00,OVC,,0.00,0.0,WeatherDisplay:10.37,2013-01-02 03:27:00,
2013-01-01 22:32:00,21.8,16.3,30.13,West,270,4.0,5.8,79,0.00,OVC,,0.00,0.0,WeatherDisplay:10.37,2013-01-02 03:32:00,
2013-01-01 22:37:00,21.7,16.2,30.14,SW,219,5.2,9.2,79,0.00,OVC,,0.00,0.0,WeatherDisplay:10.37,2013-01-02 03:37:00,
2013-01-01 22:42:00,21.7,16.2,30.13,SW,218,3.9,4.6,79,0.00,OVC,,0.00,0.0,WeatherDisplay:10.37,2013-01-02 03:42:00,
2013-01-01 22:47:00,21.6,15.8,30.13,WSW,250,5.2,7.0,78,0.00,OVC,,0.00,0.0,WeatherDisplay:10.37,2013-01-02 03:47:00,
2013-01-01 22:52:00,21.5,15.7,30.13,West,264,4.0,4.6,78,0.00,OVC,,0.00,0.0,WeatherDisplay:10.37,2013-01-02 03:52:00,
2013-01-01 22:57:00,21.4,15.9,30.13,West,259,4.6,6.9,79,0.00,OVC,,0.00,0.0,WeatherDisplay:10.37,2013-01-02 03:57:00,
2013-01-01 23:02:00,21.3,15.5,30.14,WSW,258,4.6,7.0,78,0.00,OVC,,0.00,0.0,WeatherDisplay:10.37,2013-01-02 04:02:00,
2013-01-01 23:07:00,21.3,15.5,30.13,WSW,253,4.8,6.9,78,0.00,OVC,,0.00,0.0,WeatherDisplay:10.37,2013-01-02 04:07:00,
2013-01-01 23:12:00,21.2,15.4,30.14,WSW,253,4.2,5.8,78,0.00,OVC,,0.00,0.0,WeatherDisplay:10.37,2013-01-02 04:12:00,
2013-01-01 23:17:00,21.1,15.6,30.13,WSW,238,2.2,4.6,79,0.00,OVC,,0.00,0.0,WeatherDisplay:10.37,2013-01-02 04:17:00,
2013-01-01 23:22:00,21.0,15.2,30.13,WSW,242,4.6,9.2,78,0.00,OVC,,0.00,0.0,WeatherDisplay:10.37,2013-01-02 04:22:00,
2013-01-01 23:27:00,20.9,15.1,30.14,WSW,242,3.5,5.8,78,0.00,OVC,,0.00,0.0,WeatherDisplay:10.37,2013-01-02 04:27:00,
2013-01-01 23:32:00,20.8,15.3,30.14,West,259,2.5,4.0,79,0.00,OVC,,0.00,0.0,WeatherDisplay:10.37,2013-01-02 04:32:00,
2013-01-01 23:37:00,20.7,14.9,30.13,WSW,255,3.7,6.9,78,0.00,OVC,,0.00,0.0,WeatherDisplay:10.37,2013-01-02 04:37:00,
2013-01-01 23:42:00,20.7,14.9,30.13,SW,232,3.5,6.9,78,0.00,OVC,,0.00,0.0,WeatherDisplay:10.37,2013-01-02 04:42:00,
2013-01-01 23:47:00,20.6,14.8,30.13,WSW,240,3.1,4.6,78,0.00,OVC,,0.00,0.0,WeatherDisplay:10.37,2013-01-02 04:47:00,
2013-01-01 23:52:00,20.5,14.7,30.14,SW,230,1.7,5.8,78,0.00,OVC,,0.00,0.0,WeatherDisplay:10.37,2013-01-02 04:52:00,
2013-01-01 23:57:00,20.5,14.7,30.14,WSW,240,3.9,5.0,78,0.00,OVC,,0.00,0.0,WeatherDisplay:10.37,2013-01-02 04:57:00,